Simultaneous Nadir Overpasses (SNOs) Predictions

Prediction of SNOs between LANDSAT-8 and NOAA-19 Satellite Orbit:

Table of predicted SNOs for the next 14.0 days since TLE Epoch: 8/14/2021
Index Date (LANDSAT-8) Time (LANDSAT-8) Lat,Lon (LANDSAT-8) SZA (LANDSAT-8 ) Date (NOAA-19) Time (NOAA-19) Lat,Lon (NOAA-19) SZA (NOAA-19 ) Distance(km) Time Diff (sec)
1 08/16/2021 00:00:48 80.47,-148.18 68.12 08/15/2021 23:59:39 80.49,-148.12 68.12 2.55 69
2 08/16/2021 00:50:15 -80.47, 19.47 111.87 08/16/2021 00:50:43 -80.48, 19.31 111.87 3.19 28
3 08/18/2021 06:23:59 80.48, 116.11 68.87 08/18/2021 06:23:46 80.48, 116.19 68.87 1.42 13
4 08/20/2021 11:57:44 -80.49,-147.25 110.39 08/20/2021 11:56:58 -80.49,-147.25 110.40 0.50 46
5 08/20/2021 12:47:10 80.49, 20.38 69.63 08/20/2021 12:47:53 80.47, 20.48 69.64 2.57 43
6 08/22/2021 18:20:54 -80.49, 117.03 109.61 08/22/2021 18:21:04 -80.49, 116.90 109.62 2.50 10
7 08/24/2021 23:54:38 80.49,-146.43 71.17 08/24/2021 23:54:09 80.50,-146.60 71.15 3.29 29
8 08/25/2021 00:44:06 -80.47, 20.97 108.87 08/25/2021 00:45:11 -80.49, 21.01 108.82 2.07 65
9 08/27/2021 05:28:23 -80.50, -49.78 108.04 08/27/2021 05:27:19 -80.50, -49.83 108.06 0.96 64



Historial Predications of SNOs between LANDSAT-8 and NOAA-19
